Kirksville, MO

11:23 AM CDT on May 26, 2018 (GMT -0500)
Kirksville Regional

Weather History for KIRK - March, 2014

Change the Weather History Date:

Monday, March 24, 2014

  Actual Average Record
Temperature  
Mean Temperature 31 °F 44 °F  
Max Temperature 39 °F 55 °F 84 °F (1929)
Min Temperature 23 °F 33 °F 2 °F (1965)
Degree Days  
Heating Degree Days 34 21  
Month to date heating degree days 750 617  
Since 1 July heating degree days 5720 5150  
Cooling Degree Days 0 0  
Month to date cooling degree days 0 0  
Year to date cooling degree days 0 0  
Moisture  
Dew Point 19 °F    
Average Humidity 65    
Maximum Humidity 92    
Minimum Humidity 38    
Precipitation  
Precipitation 0.02 in 0.07 in 1.92 in (1920)
Month to date precipitation 0.79 2.00  
Year to date precipitation 4.34 4.80  
Sea Level Pressure  
Sea Level Pressure 30.28 in    
Wind  
Wind Speed 7 mph (NW)    
Max Wind Speed 13 mph    
Max Gust Speed 17 mph    
Visibility 8 miles    
Events Snow    
T = Trace of Precipitation, MM = Missing Value Source: NWS Daily Summary

Daily Weather History Graph

Daily Weather History Graph

Search for Another Location

Airport or City:

Astronomy

Mar. 24, 2014 Rise Set
Actual Time 7:07 AM CDT 7:26 PM CDT
Civil Twilight 6:39 AM CDT 7:53 PM CDT
Nautical Twilight 6:08 AM CDT 8:25 PM CDT
Astronomical Twilight 5:35 AM CDT 8:58 PM CDT
Moon 2:37 AM CDT (3/24) 12:52 PM CDT (3/24)
Length of Visible Light 13h 13m
Length of Day
12h 19m
Last Quarter, 43% of the Moon is Illuminated
Mar 24
Last Quarter
Mar 30
New
Apr 7
First Quarter
Apr 15
Full
Apr 22
Last Quarter

Hourly Weather History & Observations

Time (CDT) Temp. Windchill Dew Point Humidity Pressure Visibility Wind Dir Wind Speed Gust Speed Precip Events Conditions
12:55 AM 24.1 °F 17.0 °F 12.9 °F 62% 30.42 in 10.0 mi NE 5.8 mph - N/A   Overcast
1:55 AM 26.1 °F 20.5 °F 12.9 °F 58% 30.41 in 10.0 mi ENE 4.6 mph - N/A   Overcast
2:55 AM 26.1 °F 18.4 °F 12.9 °F 58% 30.40 in 10.0 mi ENE 6.9 mph - N/A   Overcast
3:55 AM 26.1 °F 16.8 °F 12.9 °F 58% 30.38 in 10.0 mi East 9.2 mph - N/A   Overcast
4:55 AM 26.1 °F 18.4 °F 12.9 °F 58% 30.37 in 10.0 mi East 6.9 mph - N/A   Overcast
5:55 AM 26.1 °F 19.4 °F 12.9 °F 58% 30.38 in 10.0 mi East 5.8 mph - N/A   Overcast
6:55 AM 26.1 °F 18.4 °F 14.0 °F 60% 30.39 in 10.0 mi ESE 6.9 mph - N/A   Overcast
7:55 AM 27.0 °F 19.5 °F 14.0 °F 58% 30.39 in 10.0 mi East 6.9 mph - N/A   Overcast
8:55 AM 28.0 °F 20.0 °F 12.9 °F 53% 30.39 in 10.0 mi ESE 8.1 mph - N/A   Overcast
9:55 AM 30.0 °F 23.2 °F 12.9 °F 49% 30.38 in 10.0 mi SE 6.9 mph - N/A   Overcast
10:55 AM 32.0 °F 23.6 °F 12.0 °F 44% 30.36 in 10.0 mi SSE 10.4 mph - N/A   Overcast
11:55 AM 34.0 °F 26.6 °F 12.0 °F 40% 30.34 in 10.0 mi SE 9.2 mph - N/A   Scattered Clouds
12:55 PM 35.1 °F 29.3 °F 12.9 °F 40% 30.32 in 10.0 mi SW 6.9 mph - N/A   Overcast
1:55 PM 36.0 °F 32.1 °F 12.9 °F 39% 30.30 in 10.0 mi Variable 4.6 mph - N/A   Overcast
2:55 PM 37.9 °F 32.7 °F 15.1 °F 39% 30.26 in 10.0 mi South 6.9 mph - N/A   Scattered Clouds
3:55 PM 37.9 °F 33.5 °F 16.0 °F 41% 30.23 in 10.0 mi SW 5.8 mph - N/A   Mostly Cloudy
4:55 PM 37.9 °F 34.4 °F 17.1 °F 43% 30.22 in 10.0 mi Variable 4.6 mph - N/A   Overcast
5:55 PM 37.9 °F 34.4 °F 18.0 °F 45% 30.22 in 10.0 mi Variable 4.6 mph - N/A   Overcast
6:55 PM 36.0 °F 29.6 °F 21.0 °F 55% 30.22 in 10.0 mi NW 8.1 mph - N/A   Overcast
7:48 PM 32.0 °F 25.6 °F 27.0 °F 82% 30.18 in 2.0 mi WNW 6.9 mph - 0.00 in Snow Light Snow
7:55 PM 32.0 °F 26.4 °F 27.0 °F 82% 30.22 in 2.0 mi WNW 5.8 mph - 0.00 in Snow Light Snow
8:14 PM 32.0 °F 25.6 °F 28.0 °F 85% 30.18 in 3.0 mi WNW 6.9 mph - 0.01 in Snow Light Snow
8:55 PM 30.0 °F 24.1 °F 27.0 °F 88% 30.23 in 8.0 mi WNW 5.8 mph - 0.01 in   Mostly Cloudy
9:55 PM 26.1 °F 19.4 °F 24.1 °F 92% 30.23 in 6.0 mi West 5.8 mph - N/A   Clear
10:55 PM 27.0 °F 18.7 °F 24.1 °F 89% 30.22 in 7.0 mi WNW 8.1 mph - N/A   Partly Cloudy
11:27 PM 28.9 °F 19.8 °F 26.1 °F 89% 30.19 in 4.0 mi WNW 10.4 mph - 0.00 in Snow Light Snow
11:29 PM 28.9 °F 19.8 °F 26.1 °F 89% 30.19 in 1.5 mi WNW 10.4 mph - 0.00 in Snow Light Snow
11:35 PM 28.9 °F 19.8 °F 27.0 °F 92% 30.18 in 0.8 mi WNW 10.4 mph - 0.00 in Snow Light Snow
11:48 PM 28.9 °F 20.4 °F 27.0 °F 92% 30.19 in 1.5 mi WNW 9.2 mph - 0.01 in Snow Light Snow
11:55 PM 30.0 °F 21.7 °F 27.0 °F 88% 30.23 in 3.0 mi WNW 9.2 mph - 0.01 in Snow Light Snow
11:58 PM 30.0 °F 21.1 °F 27.0 °F 88% 30.19 in 5.0 mi NW 10.4 mph - 0.00 in Snow Light Snow